Temp
10 10 11 11 12 11 11 12 12 13 13 13 14 14 15 16 16 17 17 17 18 19 20 20 20 19 20 22 21 22 27 28 29 28 27 25 25 22 21 21 19 20 23 19 14
8 10 10 11 11 11 11 12 12 12 13 13 13 14 14 15 16 17 17 18 18 18 19 19 20 20 22 23 23 25 27 28 27 28 26 26 26 22 23 21 19 18 17 16 16
8 10 10 11 11 11 11 12 12 12 12 13 13 14 14 15 15 17 16 17 18 17 18 18 19 20 23 23 24 25 27 27 25 25 25 23 21 21 23 22 20 19 18 17 17
8 8 9 10 11 11 11 11 12 12 12 12 13 14 14 14 19 16 16 17 17 17 17 18 19 21 23 24 24 24 25 24 24 22 25 24 20 18 20 18 18 17 17 17 17
4 7 8 10 11 11 11 11 11 12 12 12 13 13 13 12 15 16 16 16 16 16 16 18 20 22 24 25 24 24 24 22 21 21 23 20 20 17 16 15 15 15 15 16 16
3 4 7 9 10 11 11 11 12 12 13 12 12 12 11 14 16 16 16 16 16 16 17 17 20 20 22 23 24 24 23 22 21 20 20 20 18 18 14 15 15 15 15 15 15
2 5 6 7 9 11 11 11 12 12 12 12 12 11 9 14 15 15 15 15 16 15 17 17 17 19 21 23 21 21 22 21 21 21 21 20 19 17 15 15 15 15 14 14 13
2 4 6 7 8 10 10 11 11 11 12 12 11 10 12 15 15 15 14 15 15 15 16 16 16 18 19 21 21 23 23 23 22 21 19 21 22 16 15 15 16 15 14 13 13
1 5 6 7 8 9 10 10 11 11 11 11 10 9 14 14 14 14 14 15 15 15 16 15 17 19 20 22 22 23 24 24 21 21 20 20 21 16 15 16 15 15 14 13 12
3 5 6 7 8 9 9 10 10 10 9 9 9 9 13 15 13 14 14 15 16 16 16 17 18 20 21 22 22 23 23 25 22 20 21 21 21 16 15 15 15 15 14 14 13
3 4 6 6 7 7 9 9 9 9 7 12 13 12 13 13 14 14 14 14 15 16 18 18 19 20 22 22 23 24 24 24 24 21 21 21 19 16 15 15 15 15 14 14 12
3 4 6 6 6 6 7 6 4 5 8 10 10 10 10 10 12 14 14 16 16 17 18 17 18 21 21 22 21 21 23 24 22 19 21 20 19 18 16 16 15 14 14 13 11
2 5 6 6 5 5 5 5 5 5 6 11 9 10 11 10 13 15 14 16 17 17 18 18 20 18 19 19 20 21 22 23 22 19 20 20 17 17 16 16 15 14 14 12 12
2 4 6 6 5 5 3 5 5 5 12 15 12 12 10 11 13 14 14 16 16 17 18 18 19 17 18 18 20 20 22 22 23 19 19 18 19 16 16 16 16 14 13 12 11
2 4 4 4 5 3 4 5 5 4 11 14 13 11 11 14 14 14 14 15 17 16 16 17 17 17 17 19 20 20 23 22 22 20 20 17 16 22 18 16 16 15 13 12 11
3 2 3 3 3 3 4 5 5 10 11 14 14 14 14 14 15 14 14 14 15 17 17 17 17 17 18 19 18 20 20 21 21 20 19 20 19 21 20 19 18 16 14 12 11
2 1 2 3 2 4 5 4 9 8 14 13 12 13 14 15 15 16 15 15 16 14 15 17 17 18 16 17 19 19 19 18 18 19 19 21 20 21 24 21 20 18 15 12 11
2 1 2 1 2 4 4 9 7 10 10 11 11 12 13 15 15 16 16 16 17 17 17 16 16 17 18 17 18 18 20 19 17 18 19 22 20 22 23 22 20 18 16 13 11
2 2 0 2 2 3 5 6 7 8 7 8 11 12 14 14 14 15 15 16 17 17 15 16 16 18 18 18 19 18 19 21 20 21 20 21 21 22 21 22 20 19 15 13 11
2 1 1 2 3 3 7 5 6 5 5 8 9 11 11 12 12 14 15 14 15 17 17 16 15 17 18 18 19 19 20 18 19 17 18 21 21 21 21 20 20 18 15 13 12
-0 2 1 2 3 5 3 4 4 3 3 6 7 8 10 9 10 12 14 11 10 12 15 16 15 16 17 17 18 18 17 19 19 19 19 19 21 24 23 21 19 19 15 13 12
-2 1 -0 2 2 0 1 1 2 3 3 4 5 6 7 8 8 10 11 9 7 10 13 15 15 14 16 18 19 20 18 18 17 17 19 19 21 22 24 23 20 18 15 14 12
-3 -2 -2 -0 -0 -0 1 2 2 2 3 2 2 3 3 5 6 9 9 8 5 8 7 10 13 13 14 16 17 16 18 19 19 19 18 18 20 21 20 22 20 17 15 14 11
-3 -1 -2 -3 -2 -0 -1 1 1 1 1 1 0 2 3 4 5 5 6 6 4 6 5 8 11 13 14 16 17 16 17 18 18 17 17 18 20 21 19 19 18 16 15 13 11
-4 -3 -4 -2 -2 -1 -0 0 0 -0 0 1 1 0 -0 1 3 5 4 4 5 5 5 6 8 12 13 15 16 17 17 17 17 18 17 18 19 21 21 19 17 15 14 12 11
-4 -4 -3 -2 -2 -1 -1 -1 -1 -1 -1 -0 -0 -0 0 -1 0 0 2 2 3 4 4 5 6 8 9 12 14 15 16 17 17 18 18 18 19 22 21 18 15 14 13 12 12
-6 -6 -5 -3 -2 -2 -1 -1 -1 -1 -1 -1 -1 -1 -0 1 -1 -1 -1 -1 1 2 2 3 5 6 8 13 13 12 14 16 17 18 18 17 19 21 19 17 15 14 12 12 11
Height
1537 1535 1533 1531 1529 1526 1525 1522 1520 1518 1515 1514 1512 1511 1509 1508 1507 1506 1505 1506 1505 1505 1505 1506 1506 1506 1506 1506 1507 1505 1497 1492 1487 1488 1492 1501 1503 1510 1513 1518 1522 1521 1522 1529 1532
1536 1534 1531 1529 1527 1525 1523 1521 1518 1516 1514 1512 1510 1508 1506 1504 1504 1502 1503 1501 1501 1502 1503 1505 1506 1506 1504 1502 1503 1500 1491 1486 1489 1488 1493 1498 1500 1509 1512 1518 1524 1524 1527 1531 1535
1534 1532 1529 1527 1526 1523 1521 1519 1517 1515 1512 1510 1508 1506 1504 1503 1502 1500 1498 1497 1498 1499 1501 1502 1503 1504 1500 1498 1498 1494 1490 1486 1494 1495 1495 1503 1509 1511 1510 1516 1524 1525 1528 1533 1537
1533 1530 1527 1524 1522 1520 1519 1517 1514 1512 1510 1508 1506 1504 1503 1502 1499 1497 1496 1496 1495 1496 1500 1501 1501 1500 1497 1493 1493 1493 1492 1495 1495 1497 1496 1501 1509 1515 1516 1521 1527 1530 1531 1535 1538
1530 1527 1524 1521 1519 1517 1516 1515 1512 1509 1507 1505 1504 1503 1502 1503 1499 1495 1495 1496 1495 1496 1498 1500 1499 1497 1492 1490 1493 1490 1492 1497 1498 1499 1499 1506 1509 1514 1523 1526 1528 1532 1534 1536 1540
1528 1523 1520 1518 1516 1514 1512 1511 1508 1506 1504 1502 1501 1500 1501 1501 1493 1493 1494 1495 1496 1496 1497 1498 1497 1497 1493 1491 1488 1486 1492 1495 1498 1501 1503 1506 1513 1515 1526 1526 1529 1533 1536 1538 1541
1527 1522 1519 1515 1512 1510 1509 1507 1505 1503 1501 1500 1498 1498 1498 1495 1491 1491 1492 1493 1494 1495 1496 1496 1497 1497 1493 1489 1490 1490 1492 1497 1498 1499 1501 1504 1512 1517 1523 1525 1528 1533 1536 1538 1539
1525 1521 1517 1513 1509 1506 1505 1504 1502 1501 1499 1498 1497 1497 1493 1488 1488 1489 1490 1492 1493 1493 1495 1495 1495 1495 1494 1491 1489 1487 1486 1489 1493 1497 1501 1500 1499 1519 1523 1525 1528 1531 1535 1538 1540
1524 1519 1515 1510 1506 1503 1502 1501 1500 1498 1497 1496 1496 1496 1491 1486 1487 1487 1488 1491 1492 1493 1493 1493 1494 1492 1491 1486 1484 1479 1476 1479 1492 1494 1498 1501 1498 1519 1522 1524 1527 1530 1534 1537 1539
1522 1517 1512 1508 1504 1501 1499 1498 1497 1496 1495 1495 1494 1498 1488 1487 1485 1485 1485 1489 1491 1492 1492 1493 1491 1486 1482 1477 1473 1472 1476 1469 1481 1492 1492 1495 1497 1516 1522 1524 1528 1529 1533 1536 1538
1521 1515 1510 1506 1502 1500 1499 1498 1500 1498 1494 1490 1488 1486 1485 1485 1484 1484 1484 1487 1489 1489 1486 1488 1485 1477 1472 1473 1468 1463 1465 1469 1469 1484 1488 1490 1502 1513 1519 1523 1527 1530 1531 1535 1537
1519 1513 1508 1505 1501 1500 1499 1498 1500 1501 1492 1483 1481 1481 1481 1483 1484 1482 1483 1485 1486 1482 1482 1486 1479 1472 1473 1470 1476 1474 1468 1463 1477 1490 1488 1491 1501 1510 1517 1520 1524 1528 1530 1534 1536
1518 1511 1506 1503 1500 1501 1499 1499 1499 1497 1495 1478 1477 1477 1478 1480 1479 1478 1481 1480 1480 1479 1478 1475 1470 1477 1477 1474 1476 1471 1468 1463 1475 1492 1488 1493 1506 1510 1515 1519 1523 1527 1529 1532 1534
1516 1510 1504 1501 1503 1500 1501 1499 1498 1497 1485 1470 1474 1474 1475 1477 1475 1475 1477 1480 1479 1475 1476 1474 1470 1476 1475 1472 1469 1468 1464 1467 1463 1486 1485 1490 1495 1505 1508 1513 1517 1522 1526 1530 1533
1515 1509 1505 1501 1501 1501 1501 1499 1498 1498 1487 1473 1473 1474 1474 1474 1471 1471 1474 1477 1471 1474 1477 1469 1473 1472 1470 1463 1468 1463 1460 1465 1465 1475 1478 1497 1507 1471 1493 1502 1503 1511 1519 1525 1530
1514 1509 1506 1503 1501 1501 1499 1498 1499 1493 1485 1470 1472 1471 1473 1471 1468 1470 1472 1474 1473 1471 1471 1467 1469 1470 1463 1462 1467 1465 1464 1465 1466 1470 1478 1467 1479 1465 1471 1474 1491 1504 1510 1518 1523
1514 1510 1507 1504 1502 1499 1499 1500 1495 1493 1472 1475 1475 1474 1470 1465 1465 1465 1466 1468 1465 1472 1467 1464 1463 1464 1467 1464 1463 1464 1462 1471 1476 1470 1459 1455 1465 1456 1443 1465 1475 1486 1496 1508 1516
1514 1511 1508 1505 1502 1500 1500 1499 1498 1483 1482 1483 1480 1474 1468 1462 1462 1460 1460 1459 1459 1457 1456 1455 1458 1453 1455 1457 1452 1454 1451 1455 1469 1461 1448 1446 1456 1437 1450 1460 1469 1480 1493 1504 1509
1513 1512 1510 1506 1503 1502 1503 1500 1495 1495 1499 1491 1478 1469 1461 1463 1465 1460 1456 1453 1451 1455 1460 1452 1452 1444 1447 1450 1451 1448 1449 1438 1443 1441 1445 1439 1444 1442 1449 1451 1461 1472 1485 1496 1504
1512 1511 1511 1507 1504 1504 1501 1505 1502 1508 1506 1496 1485 1477 1471 1467 1468 1460 1452 1457 1451 1451 1454 1448 1453 1445 1443 1447 1443 1442 1437 1451 1444 1458 1451 1432 1426 1432 1441 1450 1454 1464 1472 1484 1495
1515 1514 1513 1508 1507 1506 1509 1510 1511 1514 1511 1501 1492 1488 1478 1480 1475 1466 1455 1468 1469 1461 1454 1447 1449 1446 1443 1439 1435 1438 1441 1438 1437 1439 1440 1438 1418 1413 1422 1438 1448 1453 1464 1473 1481
1521 1520 1516 1511 1515 1519 1518 1521 1520 1514 1512 1508 1503 1495 1489 1486 1480 1473 1466 1472 1478 1468 1454 1446 1442 1443 1435 1430 1427 1423 1428 1430 1437 1439 1428 1425 1415 1412 1413 1424 1436 1442 1453 1464 1475
1529 1528 1523 1516 1521 1525 1524 1520 1519 1516 1514 1513 1509 1508 1505 1497 1488 1474 1475 1477 1483 1475 1473 1464 1443 1445 1437 1431 1428 1427 1422 1419 1424 1427 1426 1429 1412 1415 1423 1422 1430 1444 1453 1464 1475
1534 1531 1530 1529 1533 1530 1528 1522 1519 1519 1518 1517 1517 1510 1505 1496 1493 1487 1483 1483 1485 1482 1478 1469 1448 1435 1430 1418 1418 1426 1422 1419 1420 1429 1422 1415 1414 1411 1421 1424 1430 1437 1445 1456 1468
1539 1540 1540 1534 1534 1532 1529 1526 1521 1522 1521 1518 1514 1517 1517 1506 1497 1486 1491 1489 1483 1483 1479 1475 1455 1439 1430 1423 1416 1413 1416 1417 1418 1411 1419 1412 1410 1407 1411 1419 1424 1432 1441 1452 1462
1542 1543 1540 1536 1535 1532 1530 1528 1525 1526 1527 1520 1517 1518 1518 1515 1509 1501 1497 1497 1489 1483 1484 1480 1464 1451 1440 1429 1422 1418 1411 1409 1406 1406 1407 1407 1408 1402 1409 1419 1426 1429 1434 1441 1451
1541 1542 1541 1536 1532 1531 1528 1528 1528 1527 1524 1522 1522 1518 1512 1508 1508 1506 1502 1500 1494 1489 1490 1486 1468 1457 1437 1420 1416 1417 1404 1401 1401 1399 1398 1403 1400 1405 1411 1417 1420 1424 1432 1432 1437
Wind_Speed
15 13 14 15 16 17 16 15 15 15 15 14 14 13 13 13 11 12 15 11 11 10 9 9 11 6 4 7 6 4 7 10 12 12 10 16 15 6 5 14 6 5 17 21 22
21 20 17 15 15 16 17 17 17 16 15 15 14 14 13 13 13 13 13 14 14 12 9 7 8 6 9 7 7 9 8 11 3 4 10 17 16 13 11 15 12 19 20 23 21
20 19 20 18 17 16 16 18 18 18 17 15 15 14 13 12 11 3 5 11 15 14 10 8 8 5 13 8 10 7 11 5 6 6 16 15 12 7 17 10 10 21 24 21 19
21 20 20 20 18 17 16 17 18 19 17 16 14 13 11 7 4 2 2 4 7 12 9 6 8 9 11 11 11 9 6 5 7 8 15 18 16 13 0 10 15 18 20 19 18
23 20 20 20 19 19 17 16 18 18 17 16 14 12 10 5 8 10 4 1 2 5 7 9 12 12 13 9 10 13 6 3 7 11 12 16 13 12 14 14 16 16 17 18 16
25 21 19 19 19 19 17 17 18 17 16 16 14 12 6 9 9 10 13 9 4 3 5 7 6 9 9 10 14 8 8 11 13 15 19 20 17 7 9 15 17 16 16 15 13
27 23 19 19 19 17 16 16 16 16 14 12 12 10 9 13 10 10 9 10 8 4 4 6 6 8 4 7 7 13 9 10 14 18 9 23 11 9 16 17 18 15 14 12 11
27 24 20 20 20 15 14 15 14 12 12 10 9 8 8 9 8 13 8 8 9 6 5 5 5 7 9 2 8 13 12 13 13 16 13 10 15 14 16 19 18 16 14 12 10
28 24 21 20 20 12 12 12 11 10 11 10 9 4 8 6 4 6 11 8 8 6 6 5 5 11 10 13 12 15 15 20 12 14 9 14 14 16 17 19 18 17 16 14 12
24 25 22 19 16 11 10 9 9 11 12 11 11 6 8 3 3 5 8 12 7 6 6 8 8 10 12 15 19 17 21 18 14 15 14 14 10 18 20 19 18 18 16 15 14
23 25 23 19 12 10 7 3 3 4 5 9 3 6 3 4 5 6 9 12 9 9 11 12 11 16 19 19 19 12 18 19 18 12 16 17 14 19 22 20 18 18 18 16 14
28 23 23 18 6 7 8 4 5 5 11 14 21 24 19 6 4 10 11 15 13 15 13 9 17 17 9 15 17 17 16 20 11 13 13 13 16 17 20 19 20 19 19 18 15
30 26 21 15 1 5 7 6 7 7 7 6 8 10 10 15 11 12 16 17 12 15 15 19 5 3 16 16 20 22 20 19 17 10 2 13 10 15 15 18 19 19 18 18 19
32 26 20 13 2 4 1 5 8 3 4 4 3 1 4 7 8 20 18 13 8 13 13 13 18 11 9 21 19 23 22 15 15 18 13 16 11 18 20 19 21 23 22 21 20
33 22 17 14 6 2 3 3 3 1 4 3 4 2 3 9 1 13 16 15 14 11 7 7 10 17 21 19 18 19 19 18 18 18 11 15 8 19 24 21 23 28 28 25 23
29 16 16 15 10 6 2 1 2 3 5 2 2 1 4 11 3 4 14 11 10 14 14 16 4 9 16 19 11 13 14 17 15 15 15 22 20 23 23 29 24 30 31 29 27
22 13 16 16 13 6 1 3 3 4 3 4 5 5 8 6 9 8 12 18 12 11 16 17 19 16 10 11 17 17 17 11 13 13 20 25 22 20 26 24 28 33 39 35 31
15 11 15 17 13 4 3 4 5 3 4 7 6 15 6 3 8 13 12 15 20 16 11 11 12 21 18 22 16 24 23 15 22 21 23 20 24 24 27 19 30 35 35 34 35
17 8 15 12 11 4 3 2 4 5 8 12 15 9 10 4 6 4 16 17 17 18 13 8 10 4 13 18 20 19 22 27 23 22 17 15 18 12 8 14 22 31 35 37 36
20 4 19 11 11 4 2 1 1 9 14 8 5 4 7 5 6 4 10 8 13 18 19 14 16 11 8 15 22 25 22 21 17 21 25 22 28 18 22 16 19 26 39 42 40
12 3 23 7 8 3 2 3 4 12 14 6 6 8 7 7 8 8 6 10 13 9 13 21 16 13 11 16 21 16 19 18 20 17 19 20 23 20 19 22 23 28 40 46 48
11 3 25 7 6 4 3 4 8 10 11 6 7 9 8 9 10 7 5 9 21 15 7 11 9 17 21 15 15 22 25 25 14 26 20 18 16 4 14 23 31 36 43 47 47
10 7 16 12 4 5 6 2 6 11 9 7 8 7 10 7 7 9 7 8 25 15 13 10 8 15 15 19 16 16 20 22 25 19 23 17 20 5 3 11 24 29 35 39 41
8 4 8 15 10 6 7 4 7 6 3 10 6 3 12 6 3 8 11 7 27 14 14 11 10 13 16 17 16 19 21 23 22 17 21 21 22 15 9 13 17 29 36 40 44
8 4 5 4 6 9 8 4 8 7 6 8 3 10 10 6 14 11 7 20 10 7 13 10 8 15 17 21 21 16 20 23 23 28 23 26 27 20 14 15 22 29 33 38 43
5 5 6 7 7 7 4 5 6 8 8 9 11 13 12 13 15 20 17 14 11 6 14 11 6 14 18 19 21 22 23 20 26 28 26 29 26 15 18 11 21 29 36 40 45
3 3 3 4 5 5 4 6 10 12 5 6 13 14 16 16 18 24 27 28 26 22 17 10 7 8 12 14 14 21 26 26 25 23 25 24 24 21 11 15 23 28 33 40 47
Wind_Direction
333 333 330 329 332 333 331 331 330 331 329 325 322 317 313 308 295 282 275 255 255 246 255 264 269 263 234 204 201 226 231 238 220 224 139 163 150 124 124 132 103 112 128 143 144
332 327 324 322 322 324 325 324 326 326 325 323 323 321 318 314 304 288 256 248 242 249 246 244 244 251 225 206 192 227 236 224 16 185 166 173 166 143 145 133 109 110 123 137 143
322 320 318 316 316 317 320 321 323 324 323 321 321 321 320 321 317 213 262 251 240 237 237 229 234 237 239 215 196 187 252 136 170 182 162 148 125 158 149 134 147 140 138 145 150
331 320 314 311 311 311 315 317 318 319 319 318 319 319 317 318 302 235 276 271 231 220 222 236 220 216 240 216 198 219 223 263 152 171 164 164 137 95 224 118 136 138 140 145 151
346 334 319 309 305 307 310 312 313 316 315 312 312 316 319 275 256 252 225 247 156 208 219 231 227 226 232 229 201 221 162 156 159 155 152 143 126 113 109 126 136 139 140 144 148
350 341 334 317 304 302 307 309 312 312 311 307 305 310 308 260 250 242 235 234 235 218 222 219 251 239 263 240 223 193 169 139 153 150 145 133 127 141 135 136 134 140 140 143 146
349 346 341 330 316 300 303 306 309 309 311 307 299 299 275 255 248 239 242 213 220 226 223 226 234 232 229 222 178 153 153 151 170 161 154 142 128 119 145 146 142 145 143 141 144
348 347 344 335 324 305 304 304 304 301 305 311 303 301 261 266 259 237 234 222 221 227 240 252 230 244 238 230 184 187 186 191 175 179 168 226 166 151 155 154 152 150 146 142 139
345 346 344 337 331 318 307 304 297 289 295 299 303 294 271 275 271 227 217 211 216 227 234 251 223 232 205 213 201 203 209 213 160 197 164 218 126 159 166 164 157 156 153 150 142
349 343 343 340 335 325 316 307 291 287 283 283 262 271 246 212 229 210 208 192 196 201 203 216 226 228 220 213 217 206 227 198 193 184 196 192 160 159 171 169 167 160 158 155 149
353 341 341 342 339 343 343 334 314 268 257 234 230 263 274 292 236 207 188 188 200 216 215 206 226 221 221 226 244 270 212 207 205 164 187 192 163 169 172 173 173 171 165 162 155
352 344 338 344 346 12 27 72 56 298 299 254 249 251 252 274 281 215 178 190 203 222 207 210 230 238 252 237 233 238 236 219 154 181 199 187 172 169 179 182 181 176 173 168 163
351 346 339 347 328 18 51 56 4 338 270 275 235 254 242 216 228 224 192 203 211 220 214 235 218 261 236 232 228 230 232 227 187 168 174 169 168 183 187 191 189 190 184 179 175
351 346 343 354 94 353 103 355 345 341 277 158 210 235 186 189 225 216 207 201 212 225 226 249 244 225 233 237 230 230 224 253 215 187 200 200 231 199 193 199 198 194 193 189 182
350 350 353 6 345 22 227 316 332 356 307 70 118 180 175 202 353 189 193 209 227 202 201 209 216 222 232 235 232 247 236 216 232 212 170 189 211 235 188 204 201 197 198 192 187
351 359 2 11 14 343 219 253 128 234 236 92 87 205 196 222 225 138 200 213 244 239 227 261 219 260 257 231 242 242 236 219 214 217 221 212 213 220 194 208 195 199 199 193 187
357 12 10 8 347 339 193 150 214 206 30 38 354 348 311 261 224 218 190 203 212 212 231 233 240 234 233 233 219 219 210 195 209 206 225 214 210 231 207 202 202 199 194 191 186
2 21 19 13 1 6 141 210 227 25 350 355 324 308 263 261 230 225 228 225 220 230 271 233 231 217 216 229 213 209 214 213 215 213 230 229 219 224 236 190 209 205 195 188 185
4 26 15 13 8 18 241 221 6 6 344 327 314 281 263 258 279 249 234 242 236 216 231 229 240 237 228 213 224 210 222 222 231 235 240 210 226 211 216 237 186 196 185 189 188
355 5 3 9 17 33 240 94 76 29 336 318 289 346 295 334 304 239 231 25 266 241 234 256 262 238 240 223 225 234 218 223 236 239 236 230 229 220 199 213 194 189 187 189 188
8 8 358 8 24 44 75 31 353 342 353 326 323 303 302 319 319 283 283 69 359 321 295 242 244 258 228 214 219 214 234 223 232 227 234 236 235 226 223 204 199 196 190 190 188
5 17 358 27 45 32 37 357 340 341 355 327 303 322 318 315 294 283 305 20 3 346 302 267 237 238 239 250 235 232 216 221 218 224 240 253 247 51 229 201 206 199 190 193 191
357 340 2 43 54 29 345 345 352 359 11 8 352 359 349 289 295 266 323 28 6 354 353 345 234 243 242 242 226 235 233 227 220 239 243 233 240 170 245 226 202 202 194 191 187
4 350 14 42 41 10 354 339 346 13 10 345 5 11 340 298 207 293 304 335 337 348 339 311 256 252 237 240 222 218 234 229 231 227 240 245 250 212 212 212 196 198 191 186 187
16 37 9 352 9 356 352 327 331 358 335 335 194 20 352 297 313 272 327 320 298 346 360 7 278 272 273 274 272 253 228 230 230 235 229 239 246 237 219 214 201 191 181 182 187
17 351 334 311 318 335 354 354 357 349 318 312 307 329 307 288 283 293 305 306 295 308 341 336 281 311 283 262 254 257 252 247 227 235 237 242 247 242 238 193 185 187 180 183 189
336 312 305 320 310 313 331 324 323 319 288 323 326 312 305 304 312 295 287 277 270 278 288 280 280 313 273 268 263 243 235 241 242 244 241 238 239 240 204 200 195 183 190 191 188